Regional Weather Roundup
Issued by NWS State College, PA

Home | Current Version | Previous Version | Graphics & Text | Print | Product List | Glossary Off
Versions: 1 2 3 4 5 6 7 8 9 10 11 12 13 14 15 16 17 18 19 20 21 22 23 24 25 26 27 28 29 30 31 32 33 34 35 36 37 38 39 40 41 42 43 44 45 46 47 48 49 50

231
ASUS41 KCTP 270410
RWRCTP

REGIONAL WEATHER ROUNDUP
NATIONAL WEATHER SERVICE STATE COLLEGE PA
1200 AM EDT FRI APR 27 2018

Note: "fair" indicates few or no clouds below 12,000 feet with no
significant weather and/or obstructions to visibility.

* = STATION THAT DOES NOT REPORT PRECIPITATION /E.G. RAIN...SNOW...ETC/
    THUNDER OR FOG.

PAZ002>004-007>009-013>016-020>023-029>032-270500-
WESTERN PENNSYLVANIA

CITY           SKY/WX    TMP DP  RH WIND       PRES   REMARKS
ERIE           FAIR      43  33  68 S3        29.86F
MEADVILLE      FAIR      43  34  70 NE3       29.86F
FRANKLIN*      FAIR      46  35  65 N5        29.86F
NEW CASTLE     FAIR      48  40  73 CALM      29.86F
BEAVER COUNTY  NOT AVBL
BUTLER*        FAIR      48  37  65 CALM      29.86F
PITTSBURGH INT CLOUDY    53  37  54 CALM      29.85F
PITTSBURGH     FAIR      52  36  54 CALM      29.84F
INDIANA*       CLEAR     46  39  76 CALM      29.90S
LATROBE        FAIR      46  39  76 CALM      29.87F
WASHINGTON CO* FAIR      47  41  80 CALM      29.88F
$$

PAZ004>006-010>012-017>019-024>028-033>037-041-042-045-046-049>053-270500-
CENTRAL PENNSYLVANIA

CITY           SKY/WX    TMP DP  RH WIND       PRES   REMARKS
BRADFORD       FAIR      38  31  76 CALM      29.86F
DUBOIS         FAIR      49  32  52 CALM      29.85F
CLEARFIELD     FAIR      46  36  68 N3        29.86F
JOHNSTOWN      FAIR      51  33  50 CALM      29.85F
ALTOONA        FAIR      49  39  68 CALM      29.87S
STATE COLLEGE  FAIR      51  35  54 CALM      29.86F
WILLIAMSPORT   FAIR      50  40  68 CALM      29.85S
SELINSGROVE    FAIR      45  42  89 CALM      29.86F
FT INDIANTOWN  CLOUDY    49  44  84 CALM      29.86F
CAPITAL CITY   FAIR      56  43  61 CALM      29.86S
HARRISBURG     CLOUDY    53  47  79 E3        29.85F
YORK           FAIR      52  45  77 E3        29.85F
$$

PAZ038>040-043-044-047-048-054-055-060>062-067>071-270500-
EASTERN PENNSYLVANIA

CITY           SKY/WX    TMP DP  RH WIND       PRES   REMARKS
SCRANTON       FAIR      50  40  68 E7        29.87R
MOUNT POCONO   FAIR      43  40  89 NW5       29.88R
ALLENTOWN      FAIR      55  41  59 SW3       29.87S
QUAKERTOWN*    CLEAR     48  45  87 CALM      29.88S
READING        FAIR      51  45  79 SW6       29.87R
LANCASTER      FAIR      50  44  80 E3        29.87S
COATESVILLE    FAIR      55  41  58 CALM      29.89F
POTTSTOWN      FAIR      50  43  77 CALM      29.89S
BLUE BELL      FAIR      48  46  93 CALM      29.90S
DOYLESTOWN     FAIR      52  43  71 CALM      29.88R
WILLOW GROVE   NOT AVBL
NORTH PHILA    FAIR      57  44  62 CALM      29.90R
PHILADELPHIA   CLOUDY    57  45  64 CALM      29.89S
$$




USA.gov is the U.S. government's official web portal to all federal, state and local government web resources and services.